Location: Molveno
(46.1500°N, 10.9667°E)
Time: 17:00:55
(UTC+00:00)

NOSS 3-3 (A) - Pass Details

Date: 05 July 2020
Orbit: 825 x 1387 km, 63.4° (Epoch: 07 August)

Event Time Altitude Azimuth Distance (km) Brightness Sun altitude
Rises 20:26:00 0° 194° (SSW) 3,387 6.5 -10.6°
Reaches altitude 10° 20:28:27 10° 188° (S) 2,492 5.8 -10.9°
Maximum altitude 20:33:51 44° 117° (ESE) 1,257 4.2 -11.5°
Drops below altitude 10° 20:39:53 10° 48° (NE) 2,786 6.4 -12.1°
Sets 20:42:46 0° 43° (NE) 3,830 7.2 -12.4°
